Location: Poughquag
(41.6090°N, 73.6820°W)
Time: 08:57:54
(UTC-05:00)

DIWATA 2B (PO-101) - Pass Details

Date: 19 November 2025
Orbit: 563 x 574 km, 98.1° (Epoch: 07 December)

Event Time Altitude Azimuth Distance (km) Brightness Sun altitude
Exits shadow 18:37:48 13° 355° (N) 1,650 ? -23.5°
Maximum altitude 18:41:02 41° 288° (WNW) 826 ? -24.1°
Drops below altitude 10° 18:44:49 10° 218° (SW) 1,854 ? -24.8°
Sets 18:47:01 0° 211° (SSW) 2,746 ? -25.2°
